Regional Weather Roundup
Issued by NWS

Home | Current Version | Previous Version | Graphics & Text | Print | Product List | Glossary On
Versions: 1 2 3 4 5 6 7 8 9 10 11 12 13 14 15 16 17 18 19 20 21 22 23 24 25 26 27 28 29 30 31 32 33 34 35 36 37 38 39 40 41 42 43 44 45 46 47 48 49 50
000
ASUS43 KMPX 141501
RWRMN
WEATHER ROUNDUP FOR MINNESOTA
NATIONAL WEATHER SERVICE TWIN CITIES/CHANHASSEN MN
900 AM CST SUN FEB 14 2016


NOTE: "FAIR" INDICATES FEW OR NO CLOUDS BELOW 12,000 FEET WITH NO
SIGNIFICANT WEATHER AND/OR OBSTRUCTIONS TO VISIBILITY. N/A MEANS
CURRENT SKY AND/OR WEATHER CONDITIONS ARE NOT AVAILABLE.

MNZ060>063-068>070-141600-
   Twin Cities Metro

CITY           SKY/WX    TMP DP  RH WIND       PRES   REMARKS
TWIN CITIES    CLOUDY    12   4  70 SE10      30.06F WCI  -1
ST PAUL        CLOUDY    13   5  70 SE15      30.08F WCI  -3
CRYSTAL        CLOUDY    14   5  67 SE12      30.04F WCI   0
BLAINE         CLOUDY    14   7  73 SE10      30.05S WCI   1
LAKEVILLE      LGT SNOW  10   9  92 SE10      30.04S WCI  -3
EDEN PRAIRIE   CLOUDY    14   6  70 SE10      30.03F WCI   1
SOUTH ST PAUL  CLOUDY    14   5  68 SE9G16    30.07F WCI   2
LAKE ELMO      CLOUDY    14   5  67 SE13G20   30.07F WCI   0
$$
MNZ001>005-007-008-013>017-022>024-027-028-141600-
   Northwest Minnesota

CITY           SKY/WX    TMP DP  RH WIND       PRES   REMARKS
BEMIDJI        LGT SNOW   7   2  82 SE13      29.89F WCI  -9
HALLOCK        LGT SNOW  14  10  85 S23       29.81F VSB 3/4 WCI  -5
ROSEAU         LGT SNOW  12   7  79 S14       29.85F WCI  -3
WARROAD        LGT SNOW  10   5  79 S10G20    29.87F WCI  -3
THIEF RVR FALL CLOUDY    12   9  85 S20       29.85F WCI  -6
CROOKSTON      CLOUDY    12  10  92 S22       29.87F FOG     WCI  -7
FOSSTON        LGT SNOW  10   5  79 S14       29.87F VSB 1   WCI  -5
DETROIT LAKES  LGT SNOW  12   9  85 S14       29.88F VSB 1   WCI  -3
MOORHEAD       MIX PCPN  12  10  92 S22G28    29.87F WCI  -7
PARK RAPIDS    LGT SNOW  10   4  76 SE15      29.90F VSB 1   WCI  -7
MAHNOMEN       LGT SNOW  11   7  83 S13G18    29.87F WCI  -4
$$
MNZ006-009>011-018-025>026-141600-
   North Central Minnesota

CITY           SKY/WX    TMP DP  RH WIND       PRES   REMARKS
BAUDETTE       CLOUDY     9  -4  55 S13       29.89F WCI  -7
FLAG ISLAND    LGT SNOW   7   1  78 S20       29.87F WCI -13
INTL FALLS     CLOUDY     5 -10  50 SE9       29.95F WCI  -9
WASKISH        CLOUDY    10   1  67 SE10G17   29.90F WCI  -3
LONGVILLE      LGT SNOW   7   1  78 SE8       29.96F WCI  -6
GRAND RAPIDS   CLOUDY     7  -6  56 SE13G21   29.98S WCI  -9
CRANE LAKE     CLOUDY     1  -9  60 S6        30.03F WCI -10
ORR            CLOUDY     3 -13  47 SE6       29.96S WCI  -8
COOK           CLOUDY     3  -9  55 SE5       29.99F WCI  -6
WALKER         LGT SNOW   6   1  80 SE6       29.94F WCI  -4
$$
MNZ012-019>021-037-141600-
   Northeast Minnesota

CITY           SKY/WX    TMP DP  RH WIND       PRES   REMARKS
DULUTH         CLOUDY     5  -7  57 SE8       30.03F WCI  -8
ELY            CLOUDY     1  -6  71 SE7       30.02F WCI -11
HIBBING        CLOUDY     2 -10  57 SE8       30.00F WCI -12
EVELETH        CLOUDY     3  -8  60 SE6       30.02F WCI  -8
DULUTH HARBOR  CLOUDY     9  -9  43 CALM      30.13F
TWO HARBORS    CLOUDY     5  -4  66 CALM      30.06F
SILVER BAY     MOSUNNY  -11 -18  70 CALM      30.07F
GRAND MARAIS     N/A     18   8  65 S15       30.16F WCI   4
G MARAIS ARPRT SUNNY      9  -2  61 S8        30.04F WCI  -4
$$
MNZ029>031-032-039>041-046>048-054>057-064-141600-
   West Central Minnesota

CITY           SKY/WX    TMP DP  RH WIND       PRES   REMARKS
FERGUS FALLS   LGT SNOW  12   9  85 S20       29.93F WCI  -6
WHEATON          N/A     16  12  86 SE18      29.91F WCI  -1
MORRIS         LGT SNOW  12  10  92 SE18      29.90F WCI  -5
ALEXANDRIA     LGT SNOW  11   7  84 SE14      29.91F VSB 1   WCI  -5
ELBOW LAKE     LGT SNOW  12   9  86 E18G25    29.90F WCI  -6
WADENA         FLURRIES   9   3  78 SE10      29.91F WCI  -6
GLENWOOD       LGT SNOW  12   9  85 SE16      29.93F WCI  -4
APPLETON       FLURRIES  16  10  79 SE12      29.92F WCI   3
BENSON         LGT SNOW  14   9  79 S13       29.92F WCI   0
ORTONVILLE     CLOUDY    14  10  85 SE10      29.89F FOG     WCI   1
MADISON        FLURRIES  16  12  86 SE13      29.91F WCI   2
WILLMAR        LGT SNOW  16  12  86 SE16G22   29.95F VSB 3/4 WCI   0
$$
MNZ033>034-036-042>043-049>051-058-059-141600-
   Central Minnesota

CITY           SKY/WX    TMP DP  RH WIND       PRES   REMARKS
ST CLOUD       CLOUDY    12   4  70 SE14      29.99F WCI  -3
SAUK CENTRE    LGT SNOW  11   7  83 SE10      29.94F WCI  -2
PAYNESVILLE    LGT SNOW  14  10  83 SE10      29.96F WCI   1
AITKIN         LGT SNOW   9   1  72 SE7       29.98F WCI  -3
PINE RIVER     LGT SNOW   7   3  85 SE8       29.99F WCI  -6
BRAINERD       LGT SNOW   8   3  80 SE9       29.98S VSB 1   WCI  -5
STAPLES        CLOUDY     9   3  78 SE7       29.94F WCI  -3
LONG PRAIRIE   LGT SNOW  10   5  79 SE8       29.95F WCI  -1
LITTLE FALLS   CLOUDY    12   3  67 SE13      29.99F WCI  -3
LITCHFIELD     LGT SNOW  14  10  85 SE10G17   29.98F WCI   1
BUFFALO        CLOUDY    12   5  72 SE12      30.02F WCI  -2
MAPLE LAKE     CLOUDY    13   7  76 SE7       30.01F WCI   3
$$
MNZ037-044-045-052-053-141600-
   East Central Minnesota

CITY           SKY/WX    TMP DP  RH WIND       PRES   REMARKS
PRINCETON      CLOUDY    12   5  73 SE10      30.02F WCI  -1
MORA           FLURRIES  10   1  67 SE8       30.06F WCI  -1
CAMBRIDGE      CLOUDY    10   1  67 CALM      30.03F
RUSH CITY      CLOUDY    10   4  75 SE8G17    30.06F WCI  -2
MOOSE LAKE     LGT SNOW   9   0  66 S5        30.03F WCI   0
HINCKLEY       FLURRIES  10   3  72 SE12      30.05F WCI  -4
CLOQUET        FLURRIES   3  -9  55 E7        30.03F WCI  -9
MCGREGOR       CLOUDY    10   0  61 SE9       30.01F WCI  -2
$$
MNZ071>073-080-081-089-090-097-098-141600-
   Southwest Minnesota

CITY           SKY/WX    TMP DP  RH WIND       PRES   REMARKS
MONTEVIDEO     CLOUDY    14  10  85 S15       29.94F WCI  -1
GRANITE FALLS  LGT SNOW  16  13  88 SE10      29.95F WCI   4
CANBY          FLURRIES  18  13  81 SE13      29.90F WCI   5
MARSHALL       CLOUDY    15  10  80 S15       29.91F WCI   0
REDWOOD FALLS  LGT SNOW  15  11  83 SE14      29.95F FOG     WCI   0
OLIVIA         LGT SNOW  18  12  79 SE13      29.96F WCI   4
PIPESTONE      LGT SNOW  16   7  67 S12       29.85S WCI   3
WINDOM         LGT SNOW  14  10  85 SE15G21   29.90F VSB 1   WCI  -1
WORTHINGTON    CLOUDY    12   9  85 SE14G20   29.88F WCI  -3
JACKSON        LGT SNOW  16  10  79 SE13      29.91F WCI   2
TRACY          CLOUDY    15  11  83 S12G18    29.90F WCI   2
SLAYTON        CLOUDY    13  11  93 SE17      29.87F FOG     WCI  -4
$$
MNZ065>067-074>077-082>085-091>093-141600-
   South Central Minnesota

CITY           SKY/WX    TMP DP  RH WIND       PRES   REMARKS
MANKATO        CLOUDY    16  10  79 SE17      29.99F WCI   0
NEW ULM        LGT SNOW  14  10  85 SE14      29.96F WCI  -1
ST JAMES       LGT SNOW  18  14  86 SE14      29.96F WCI   4
FAIRMONT       CLOUDY    16   9  73 SE21      29.93F WCI  -2
GLENCOE        FLURRIES  16  12  85 SE12      29.99F WCI   3
FARIBAULT      CLOUDY    12   9  85 SE12      30.03S WCI  -2
OWATONNA       LGT SNOW  12   9  85 SE14      30.01S VSB 3/4 WCI  -3
WASECA         LGT SNOW  14  10  85 SE16G24   30.01F WCI  -2
ALBERT LEA     LGT SNOW  14  10  85 SE15      29.98F WCI  -1
$$
MNZ078>079-086>088-094>096-141600-
   Southeast Minnesota

CITY           SKY/WX    TMP DP  RH WIND       PRES   REMARKS
ROCHESTER      LGT SNOW  11   6  81 SE21      30.02F VSB 1   WCI  -8
RED WING       CLOUDY    12   3  67 SE13      30.09S WCI  -3
STANTON        CLOUDY    14   7  72 SE12G20   30.03F WCI   1
DODGE CENTER   SNOW      10   9  92 SE21      30.00F VSB 1/4 WCI  -9
WINONA         LGT SNOW  14   7  73 SE10      30.14F WCI   1
AUSTIN         CLOUDY    12  10  92 SE15      30.01F FOG     WCI  -4
PRESTON        LGT SNOW  10   6  82 SE14G20   30.05F WCI  -5
$$
ABBREVIATIONS USED IN REMARKS
   TC - TEMPERATURES IN CELSIUS
  WCI - WIND CHILL INDEX
   HX - HEAT INDEX
  VSB - VISIBILITY
$$



USA.gov is the U.S. government's official web portal to all federal, state and local government web resources and services.